Location: El Corozo
(10.5833°N, 66.9667°W)
Time: 12:19:01
(UTC+00:00)

ARIANE 5 R/B - Pass Details

Date: 23 May 2024
Orbit: 501 x 17441 km, 6.8° (Epoch: 25 June)

Event Time Altitude Azimuth Distance (km) Brightness Sun altitude
Rises 07:28:25 0° 274° (W) 17,746 8.5 -35.1°
Reaches altitude 10° 07:57:30 10° 270° (W) 11,903 7.6 -29.1°
Enters shadow 07:59:05 11° 270° (W) 11,504 7.5 -28.7°
Exits shadow 08:18:14 27° 259° (W) 5,837 5.9 -24.7°
Maximum altitude 08:29:10 50° 201° (SSW) 2,366 4.1 -22.3°
Drops below altitude 10° 08:35:29 10° 125° (SE) 2,766 5.2 -20.9°
Sets 08:37:09 0° 118° (ESE) 3,339 5.8 -20.5°
